Wind_Speed
26 27 28 29 26 26 27 29 29 29 30 32 33 35 36 38 40 42 43 44 45 45 44 44 46 44 48 48 48 48 48 50 47 43 45 45 47 45 52 52 53 54 54
28 28 30 30 28 28 29 32 32 31 32 34 36 37 40 42 44 45 45 44 44 44 43 39 43 46 46 40 38 40 41 45 47 43 40 43 44 47 51 52 57 54 50
28 28 30 31 31 31 30 33 33 32 33 36 37 40 43 46 46 45 46 44 43 42 45 45 47 46 41 35 35 38 39 40 43 44 42 40 43 45 48 54 52 57 55
29 29 31 33 33 32 32 33 34 33 36 39 41 44 47 50 50 48 43 45 43 45 45 45 45 45 39 37 36 37 38 39 39 41 43 39 41 48 47 50 53 52 49
30 31 33 33 33 33 34 35 35 36 40 42 46 48 51 52 49 42 43 43 44 45 45 43 42 39 38 36 35 37 38 40 41 36 39 42 42 45 46 48 51 49 51
31 31 33 33 32 34 35 36 38 41 44 46 51 53 55 54 48 39 48 46 46 48 44 44 40 37 35 34 35 36 40 45 42 41 37 39 41 42 45 46 49 50 50
31 32 33 35 35 36 36 38 41 45 47 49 52 54 55 51 48 46 44 43 46 45 47 42 35 32 34 35 35 37 41 48 46 48 39 32 36 45 45 46 47 47 48
33 34 34 35 36 36 38 40 44 48 50 51 52 52 51 49 46 46 41 42 44 41 31 31 30 28 33 35 34 38 41 48 48 45 40 36 30 37 44 45 44 45 45
33 34 35 37 37 38 41 43 46 50 53 53 51 50 51 50 46 42 38 38 41 35 35 35 26 33 32 35 35 36 44 46 39 38 38 31 32 30 38 42 41 43 45
33 36 38 38 38 41 43 46 49 49 50 51 49 48 47 47 43 42 41 41 41 30 30 29 28 29 32 32 34 37 37 38 33 34 34 27 23 32 36 42 42 41 43
36 38 37 38 40 40 41 46 48 50 49 54 44 47 45 40 40 39 41 41 37 35 29 35 26 30 32 30 32 36 36 30 29 29 28 19 24 24 30 40 40 37 42
42 38 38 45 39 38 37 47 48 49 49 43 60 45 43 39 42 40 42 46 38 28 32 34 24 29 30 24 30 32 38 22 22 26 22 18 21 25 29 36 35 35 35
46 44 50 50 43 37 48 45 48 49 47 44 37 34 41 42 41 40 41 41 32 33 34 26 22 27 26 22 27 28 40 23 21 27 15 20 24 25 32 33 34 32 28
23 35 24 29 32 37 39 45 46 45 46 46 45 57 47 41 41 41 41 38 31 29 26 24 21 26 24 20 21 24 35 35 21 22 20 6 15 23 29 32 31 28 29
56 56 53 38 56 58 46 46 45 46 47 45 46 49 47 42 42 40 39 37 33 29 28 26 22 23 23 19 17 21 22 36 37 17 20 4 16 23 27 31 31 31 31
53 59 61 56 64 59 53 50 50 50 48 47 45 45 43 41 39 38 36 33 29 31 31 26 25 24 23 19 16 19 21 21 32 34 19 11 8 16 26 32 35 34 28
56 60 61 62 62 59 55 54 52 52 47 43 42 40 38 37 37 36 34 31 31 29 28 20 20 22 21 18 17 17 18 19 19 30 34 18 11 4 14 29 35 36 40
58 58 59 58 57 54 51 52 51 47 43 40 39 37 36 32 31 32 30 27 25 22 21 19 19 19 19 18 18 18 16 15 16 16 22 33 18 6 16 13 32 37 38
55 53 55 56 55 52 48 46 45 43 40 37 35 35 32 30 29 29 29 26 23 23 23 23 23 24 24 20 19 19 19 16 14 14 15 17 28 11 4 10 14 26 32
46 55 54 52 51 49 46 44 42 40 36 32 33 33 32 32 31 28 27 20 20 24 25 25 25 24 26 23 20 19 18 17 15 14 12 13 13 20 22 8 6 8 27
48 49 47 48 46 43 40 38 37 35 33 33 32 34 32 28 26 23 22 23 22 24 25 28 23 21 22 22 20 22 20 17 17 16 15 13 12 11 10 18 22 4 5
36 42 45 42 37 36 33 34 32 31 32 32 32 32 30 29 28 26 26 26 27 26 23 22 21 21 22 23 22 22 23 21 18 18 17 15 14 12 11 10 10 16 17
41 38 36 38 36 32 30 30 30 30 31 33 31 30 28 26 26 23 22 23 24 24 23 23 23 23 23 24 24 24 24 25 25 22 21 19 17 16 13 12 11 11 11
41 41 38 36 31 28 28 30 33 32 30 31 27 24 24 23 25 27 25 24 24 24 25 25 25 25 25 25 25 26 27 27 27 26 24 23 22 19 17 16 15 14 15
37 32 30 30 30 30 28 30 31 28 23 26 27 27 27 26 25 26 27 26 26 27 28 29 31 30 29 28 27 28 27 27 27 27 26 24 23 22 21 20 19 18 19
32 32 30 30 30 28 25 26 26 28 28 27 26 26 25 24 24 25 25 26 26 25 25 25 25 27 25 24 24 23 23 23 23 25 24 24 23 22 23 22 21 21 22
Wind_Direction
299 302 303 304 307 305 313 314 317 314 312 312 312 312 313 315 315 313 311 310 314 313 311 309 308 302 300 298 295 291 289 287 278 273 264 254 255 249 247 237 233 236 233
295 297 299 301 308 315 315 313 313 311 313 313 313 314 316 315 315 313 313 312 312 310 310 306 303 303 302 296 293 293 289 285 280 273 273 259 257 250 246 241 235 235 231
287 293 298 307 312 314 313 310 308 308 314 313 314 315 313 315 315 315 315 314 313 311 307 303 302 303 298 293 290 290 290 283 284 277 271 263 257 249 247 243 237 234 235
292 296 302 307 309 311 308 307 304 310 312 313 315 314 314 317 315 316 316 314 312 309 307 306 303 301 295 293 289 290 290 291 291 283 273 264 256 247 246 242 238 233 235
287 294 296 299 303 305 305 301 307 310 312 314 316 317 317 316 315 314 311 312 310 306 307 304 300 299 299 295 294 295 294 295 297 281 275 267 253 242 243 235 234 234 232
286 291 292 296 300 303 302 305 308 311 313 316 315 314 315 316 316 311 309 311 312 309 308 304 298 297 298 297 297 301 301 300 297 293 280 270 251 241 244 233 227 230 229
286 289 293 296 301 303 305 307 309 309 311 314 315 314 314 316 317 311 311 311 308 303 305 298 295 294 294 298 302 304 307 301 301 298 288 283 248 240 240 237 224 225 225
288 287 292 296 299 302 304 307 307 309 311 311 311 310 312 317 312 311 314 310 307 309 308 305 303 299 297 298 304 313 309 307 306 301 293 282 249 235 233 227 220 221 221
287 284 289 292 296 300 302 306 308 309 311 310 309 308 313 316 311 314 312 308 309 302 299 304 297 303 299 301 310 318 318 312 304 298 300 287 243 236 228 221 213 219 217
280 283 286 291 296 299 303 306 307 308 308 309 309 311 317 313 311 312 315 309 311 308 303 303 302 301 301 309 318 320 328 312 303 295 297 287 239 235 235 218 211 211 210
280 280 285 288 289 295 303 305 302 304 309 310 304 314 311 309 310 311 312 313 311 305 299 307 306 302 303 315 324 330 340 309 305 308 303 258 234 241 231 211 203 205 210
279 279 279 277 286 296 301 307 304 309 310 307 312 310 308 309 310 312 316 315 313 300 303 297 301 306 309 317 329 331 344 318 313 326 301 248 236 233 214 204 198 197 204
274 270 272 276 279 294 314 307 309 315 313 291 305 310 309 307 308 314 317 317 312 299 302 295 305 304 306 319 334 337 344 344 317 329 312 243 225 219 207 201 199 197 207
225 334 278 278 280 303 306 305 306 310 308 313 293 300 308 308 311 312 312 314 304 302 297 300 292 294 314 319 335 333 344 8 341 322 327 168 211 217 213 206 199 198 204
271 304 297 293 302 309 314 314 315 311 311 309 302 300 303 306 307 307 306 309 302 295 290 288 285 297 310 313 331 342 344 346 6 346 348 35 222 230 216 221 205 203 204
291 293 294 298 302 305 308 310 309 309 309 303 298 300 302 303 304 304 304 304 305 293 279 273 292 291 299 303 320 333 347 343 349 5 348 343 280 182 214 218 215 212 207
280 283 290 298 299 301 305 307 309 309 304 300 298 298 300 301 304 302 301 302 304 292 288 284 287 291 288 295 302 317 334 347 348 347 1 9 352 252 239 231 223 219 212
282 286 291 291 293 297 303 302 303 303 297 298 299 298 298 303 302 303 303 306 301 285 285 280 276 286 290 291 296 306 319 335 343 351 353 357 8 248 230 189 216 222 223
282 287 285 286 288 295 300 301 301 297 295 295 296 294 298 303 300 301 301 304 293 287 285 280 281 280 286 290 291 298 309 320 331 347 355 355 352 339 57 157 178 207 218
280 282 287 293 297 297 296 295 293 291 295 296 293 295 299 299 299 297 299 300 294 291 283 280 283 285 282 281 285 289 295 304 313 325 339 345 348 346 350 302 59 213 214
281 288 294 293 291 290 289 288 288 291 293 293 292 293 293 290 289 289 293 293 295 297 290 282 286 279 277 279 285 286 287 290 299 307 315 321 327 329 333 337 340 343 327
291 295 296 293 289 290 288 289 291 295 294 292 289 288 286 287 286 286 285 284 283 285 287 288 279 280 279 281 280 281 284 288 289 294 301 305 307 310 312 309 313 326 339
300 293 292 299 292 290 290 291 292 292 292 290 288 285 285 288 286 285 281 280 279 281 283 281 280 281 281 278 277 278 281 285 289 291 293 292 293 295 295 294 289 280 287
298 293 295 291 287 286 290 294 296 296 294 288 285 280 281 283 285 287 285 282 281 280 282 283 283 281 280 278 278 279 280 282 285 287 287 288 288 286 285 281 278 276 272
295 291 291 288 288 288 295 296 296 296 291 290 293 290 287 285 283 281 282 281 280 279 277 278 278 279 279 280 281 280 279 278 278 279 281 280 277 277 276 276 273 266 263
291 290 288 288 288 289 291 287 286 288 289 290 289 289 290 290 289 287 286 285 282 277 274 272 275 275 279 283 284 285 283 280 277 276 275 274 272 271 270 270 268 264 260
Height
5891 5888 5887 5885 5884 5881 5878 5873 5869 5866 5863 5860 5857 5852 5847 5842 5837 5832 5826 5821 5816 5810 5804 5797 5793 5790 5784 5779 5774 5770 5767 5764 5766 5770 5770 5772 5773 5775 5777 5782 5789 5796 5801
5885 5882 5879 5878 5876 5872 5869 5865 5862 5859 5856 5853 5849 5843 5838 5833 5828 5823 5818 5812 5807 5800 5793 5786 5780 5776 5771 5766 5762 5759 5756 5752 5750 5753 5755 5756 5758 5760 5762 5768 5774 5779 5786
5878 5875 5873 5870 5866 5864 5861 5858 5855 5852 5849 5845 5839 5834 5828 5823 5818 5813 5808 5802 5796 5791 5784 5776 5769 5764 5759 5755 5751 5748 5746 5742 5738 5738 5740 5741 5744 5745 5748 5752 5760 5768 5774
5870 5867 5865 5863 5860 5858 5855 5852 5848 5845 5840 5835 5829 5824 5818 5813 5808 5803 5797 5791 5785 5779 5772 5766 5759 5754 5748 5744 5741 5738 5734 5731 5728 5725 5723 5724 5727 5729 5734 5739 5747 5753 5762
5863 5861 5859 5856 5854 5851 5848 5844 5840 5836 5831 5825 5820 5814 5808 5803 5798 5792 5788 5782 5775 5768 5761 5754 5748 5743 5738 5735 5731 5727 5723 5719 5715 5712 5710 5707 5710 5713 5717 5724 5732 5740 5748
5854 5854 5852 5849 5847 5843 5840 5835 5830 5826 5820 5815 5809 5804 5799 5793 5787 5782 5775 5769 5763 5755 5749 5743 5737 5734 5729 5726 5722 5718 5712 5706 5700 5697 5696 5694 5697 5701 5704 5710 5719 5727 5737
5845 5845 5843 5840 5837 5834 5829 5825 5821 5816 5810 5805 5800 5794 5788 5783 5777 5771 5765 5759 5752 5744 5737 5731 5727 5723 5721 5718 5714 5709 5701 5693 5687 5679 5677 5679 5681 5685 5690 5698 5706 5715 5726
5836 5834 5832 5829 5827 5824 5819 5815 5811 5806 5801 5795 5790 5783 5778 5773 5767 5760 5755 5749 5741 5734 5726 5722 5719 5715 5712 5708 5705 5699 5690 5681 5675 5668 5664 5664 5666 5669 5676 5685 5694 5704 5713
5827 5824 5821 5818 5816 5813 5810 5806 5801 5796 5791 5785 5779 5773 5769 5763 5756 5750 5745 5740 5733 5728 5721 5715 5712 5708 5704 5701 5697 5690 5682 5671 5663 5658 5653 5652 5656 5660 5665 5673 5683 5694 5705
5817 5813 5811 5810 5808 5805 5801 5796 5791 5786 5780 5775 5767 5761 5759 5753 5747 5741 5735 5729 5723 5717 5712 5708 5704 5701 5695 5693 5688 5681 5673 5664 5658 5654 5649 5645 5647 5650 5656 5664 5671 5684 5694
5806 5804 5803 5800 5796 5792 5788 5786 5780 5774 5766 5760 5752 5752 5749 5744 5739 5732 5726 5720 5715 5709 5705 5701 5696 5695 5689 5685 5680 5672 5663 5656 5652 5644 5640 5640 5641 5643 5649 5656 5664 5676 5685
5794 5794 5793 5786 5785 5781 5777 5771 5769 5763 5754 5747 5743 5740 5738 5733 5729 5722 5716 5710 5704 5701 5698 5693 5692 5688 5683 5679 5674 5666 5659 5651 5646 5639 5634 5635 5636 5638 5643 5651 5659 5668 5677
5775 5779 5774 5772 5772 5768 5767 5762 5757 5752 5745 5738 5735 5732 5729 5724 5719 5713 5707 5701 5697 5694 5690 5688 5687 5682 5677 5673 5668 5662 5657 5648 5642 5637 5630 5629 5632 5635 5641 5648 5653 5661 5669
5743 5763 5744 5758 5756 5755 5755 5751 5746 5740 5734 5730 5727 5722 5719 5714 5708 5703 5698 5694 5690 5687 5684 5682 5681 5675 5671 5669 5665 5659 5654 5645 5639 5635 5629 5624 5630 5633 5640 5644 5649 5655 5662
5758 5753 5754 5751 5747 5746 5743 5737 5731 5728 5725 5720 5717 5711 5708 5704 5700 5694 5689 5685 5683 5681 5678 5676 5674 5672 5668 5665 5660 5656 5650 5645 5637 5632 5626 5623 5627 5630 5635 5640 5644 5649 5655
5750 5745 5739 5734 5735 5732 5729 5725 5722 5718 5712 5708 5705 5702 5697 5694 5690 5686 5681 5678 5675 5673 5670 5669 5668 5666 5663 5660 5657 5654 5649 5644 5639 5631 5627 5623 5623 5621 5629 5634 5639 5644 5649
5738 5731 5728 5727 5724 5720 5717 5714 5710 5705 5702 5697 5694 5692 5688 5685 5680 5677 5673 5670 5666 5663 5662 5662 5661 5659 5657 5656 5654 5652 5648 5643 5638 5633 5628 5623 5618 5619 5625 5628 5632 5637 5641
5724 5721 5719 5718 5714 5710 5707 5704 5701 5697 5692 5688 5685 5682 5679 5677 5672 5668 5666 5663 5660 5657 5656 5656 5655 5654 5652 5650 5649 5648 5646 5643 5639 5634 5628 5622 5620 5623 5621 5621 5624 5628 5634
5714 5714 5710 5706 5703 5702 5698 5692 5690 5687 5684 5680 5675 5673 5671 5668 5665 5662 5659 5656 5653 5651 5650 5649 5649 5648 5647 5645 5643 5642 5641 5639 5637 5633 5629 5626 5623 5619 5619 5618 5617 5623 5627
5703 5700 5699 5696 5691 5688 5684 5681 5679 5676 5674 5671 5666 5665 5663 5660 5657 5655 5651 5649 5647 5646 5644 5643 5643 5642 5641 5639 5638 5636 5636 5635 5633 5631 5629 5626 5624 5622 5620 5617 5616 5616 5619
5689 5688 5686 5682 5679 5675 5672 5670 5667 5666 5663 5661 5658 5656 5654 5651 5650 5647 5645 5642 5641 5639 5637 5636 5635 5635 5634 5633 5632 5631 5630 5630 5629 5628 5626 5624 5624 5622 5620 5618 5613 5614 5619
5678 5674 5672 5669 5665 5662 5661 5658 5657 5655 5653 5651 5648 5646 5644 5642 5641 5639 5638 5636 5634 5632 5630 5629 5629 5628 5626 5626 5626 5626 5624 5623 5623 5623 5622 5621 5619 5618 5618 5616 5615 5614 5613
5662 5661 5659 5657 5653 5650 5649 5648 5647 5646 5643 5640 5639 5635 5634 5633 5630 5631 5629 5628 5626 5624 5623 5621 5621 5620 5619 5619 5618 5618 5618 5616 5614 5615 5615 5615 5615 5614 5613 5614 5613 5612 5612
5650 5651 5648 5646 5642 5641 5640 5638 5636 5634 5632 5630 5630 5628 5627 5625 5623 5621 5621 5620 5619 5618 5616 5614 5614 5612 5612 5611 5611 5610 5609 5609 5607 5606 5606 5606 5606 5607 5608 5608 5608 5607 5608
5642 5639 5637 5635 5633 5631 5630 5627 5624 5624 5625 5621 5619 5618 5617 5617 5616 5614 5612 5611 5610 5608 5608 5606 5604 5603 5602 5602 5601 5601 5600 5600 5600 5599 5599 5599 5600 5599 5599 5600 5601 5602 5602
5631 5630 5628 5626 5623 5622 5621 5619 5617 5616 5615 5614 5612 5609 5608 5607 5606 5604 5603 5602 5600 5599 5597 5597 5595 5594 5594 5593 5593 5592 5592 5591 5591 5590 5590 5591 5592 5592 5592 5592 5592 5594 5595